Погода в Середней

Россия / Костромская область     57°42′18″N   40°57′44″E
темп.,
°C
ветер,
м/с
пор.,
м/с
влажн.,
%
обл.,
%
осадки,
мм/ч
давл.,
гПа
погр.,
м
18 апреля, вс
вс1800:00+5всв39810 0.0 1026170
03:00+3всв39843 0.0 1026160
06:00+3всв3108238 0.0 1026228
09:00+9всв595869 0.0 1025680
12:00+10всв6949100 0.0 10251234
15:00+10всв6855100 0.0 10261454
18:00+7всв6971100 0.0 1027824
21:00+5всв61279100 0.0 1028685
19 апреля, пн
пн1900:00+4всв51080100 0.0 1029588
03:00+2всв51171100 0.0 1030466
06:000всв5117395 0.0 1030510
09:00+4в695546 0.0 1030837
12:00+7в784722 0.0 10301536
15:00+9в783847 0.0 10291876
18:00+7в584435 0.0 10301645
21:00+3в4105535 0.0 1030373
20 апреля, вт
вт2000:00+2в5126193 0.0 1030439
03:00+1в5126598 0.0 1030386
06:000в6136369 0.0 1029428
09:00+4в71248100 0.0 1029698
12:00+9вюв81143100 0.0 10271423
15:00+10вюв8104268 0.0 10261756
18:00+9вюв6114696 0.0 10231375
21:00+6вюв61346100 0.0 1023576
21 апреля, ср
ср2100:00+4вюв71649100 0.0 1020748
03:00+4вюв91751100 0.0 1016792
06:00+1вюв102085100 0.9 1013941
09:00+1вюв101997100 3.9 1011800
12:00+2вюв91792100 1.0 1009822
15:00+3юв91894100 2.1 1007900
18:00+4юв101893100 0.4 1006830
21:00+5ю71288100 0.7 10081011
22 апреля, чт
чт2200:00+4ю81581100 0.1 10091296
03:00+4ююз91582100 0.1 10111127
06:00+4ююз7138483 0.1 1013916
09:00+6ююз7107899 0.1 10141058
12:00+8юз6106992 0.2 10161363
15:00+10зюз6957100 0.5 10171658
18:00+9ююз367096 0.1 1018297
21:00+6ююв379173 0.2 1019128